Dewpoint
30 24 18 11 15 16 14 14 15 18 19 20 19 18 10 10 10 8 -1 -0 -0 5 19 23 22 23 27 26 28 28 29 29 30 31 31 32 32 34 34 35 32 33 37 38
25 21 17 14 14 17 16 11 17 18 16 16 14 15 12 10 10 8 -2 0 1 7 19 23 22 23 27 26 27 28 29 30 30 32 32 32 32 34 33 32 31 34 36 37
15 14 13 12 14 6 17 9 3 4 18 15 13 12 11 9 9 9 -2 2 3 9 20 23 22 24 27 27 28 28 29 30 30 31 32 33 32 32 31 31 32 33 34 35
15 14 10 17 11 8 18 10 10 9 15 14 11 9 10 9 8 3 -4 2 4 11 21 24 23 25 27 27 28 29 30 31 30 31 32 31 31 30 30 31 31 32 33 34
20 17 15 14 9 10 10 20 17 19 15 14 13 12 13 7 4 -1 -2 4 5 13 23 24 23 27 28 28 29 30 30 31 32 33 33 33 32 33 32 32 31 32 33 35
17 18 14 9 9 12 13 18 20 20 18 15 17 9 8 5 3 1 2 4 6 15 23 25 25 27 28 29 29 30 30 31 32 33 33 33 33 32 32 32 32 32 33 34
16 16 14 11 10 14 13 13 18 20 17 13 6 4 6 4 6 3 4 5 6 17 24 26 26 27 27 27 29 29 30 31 31 32 33 33 33 32 32 32 33 31 32 33
21 18 13 7 6 9 11 11 12 8 11 10 10 10 9 6 4 3 5 7 8 18 24 26 26 27 27 26 28 29 30 30 31 31 33 33 32 32 32 33 33 32 30 32
17 18 12 8 6 8 10 13 13 8 9 11 15 5 8 7 4 2 3 8 9 19 25 26 24 26 26 26 27 28 29 30 31 32 32 32 31 30 31 31 32 31 30 31
20 18 16 12 12 12 10 9 11 15 18 11 8 3 6 7 5 2 2 6 8 20 25 25 24 26 27 26 27 28 29 30 30 32 31 32 31 30 30 30 30 29 29 31
17 17 17 17 15 12 11 9 9 8 5 13 10 6 5 4 5 4 3 6 8 20 25 25 25 27 27 26 27 28 29 30 30 31 30 32 31 31 30 30 30 30 29 32
20 21 17 13 10 11 12 9 5 21 19 13 19 15 2 3 5 7 7 6 7 21 26 25 26 27 27 26 26 27 28 29 30 30 30 32 31 32 30 30 29 30 27 31
20 20 19 16 15 14 14 12 8 14 19 20 19 19 3 6 6 5 5 6 6 20 25 25 26 27 27 25 26 27 28 29 30 30 29 31 31 31 31 30 29 29 28 29
27 23 21 23 21 20 16 15 9 9 22 23 17 16 5 10 10 2 5 4 7 19 24 25 26 27 28 26 27 28 29 30 30 30 29 30 31 31 31 31 30 30 29 28
23 21 18 15 14 16 16 17 15 12 12 14 14 12 12 8 3 3 6 3 8 19 24 26 26 27 28 27 27 29 30 30 30 29 28 29 31 32 32 32 31 30 30 29
22 22 17 15 13 11 12 14 15 14 12 11 11 11 6 2 2 4 3 2 9 19 24 26 27 27 28 29 29 30 30 30 30 29 29 29 30 31 32 32 32 30 30 29
22 25 21 22 13 14 17 14 14 13 13 12 12 11 7 9 6 4 4 4 10 19 24 26 28 28 28 30 29 31 31 30 30 30 30 29 29 31 32 32 32 31 29 30
21 22 28 29 19 22 20 12 14 14 14 14 14 12 11 9 7 7 9 4 12 21 25 27 29 30 30 31 31 31 32 30 31 31 31 30 29 29 32 32 32 32 31 30
20 31 33 29 25 22 14 12 11 13 16 17 15 16 12 11 8 7 9 9 17 23 26 28 29 30 30 30 31 31 31 30 31 32 31 30 30 28 30 33 32 33 32 31
19 22 32 27 26 20 18 14 15 13 14 16 20 16 12 13 4 8 9 13 20 25 27 29 31 30 29 31 31 31 31 30 31 32 32 31 30 28 28 31 33 33 33 32
20 25 25 28 28 29 17 14 14 21 28 15 17 15 14 11 10 9 11 17 23 25 28 30 31 30 29 30 31 31 31 31 32 33 32 31 29 28 28 30 33 32 32 33
23 27 26 29 28 19 16 11 14 26 16 15 13 14 16 14 13 12 15 22 25 27 28 30 30 29 29 31 31 31 31 32 33 32 31 30 28 28 26 28 31 32 32 32
23 33 32 31 28 23 13 20 18 20 17 13 13 16 15 14 12 14 19 23 25 26 28 29 30 29 30 31 31 31 32 33 33 31 30 29 28 28 27 27 28 31 31 31
22 25 26 22 26 22 16 17 18 19 19 16 17 16 15 14 12 13 20 23 25 26 28 29 30 30 30 31 31 32 32 33 33 30 29 28 28 29 28 29 29 28 30 31
22 22 23 23 27 23 22 17 19 18 19 17 16 16 16 15 12 16 20 23 25 27 28 29 29 30 30 31 31 32 33 33 33 31 29 28 30 29 29 29 30 28 29 31
21 19 20 17 22 22 24 22 19 19 18 17 15 15 16 14 13 19 22 24 25 26 28 29 30 30 31 31 32 32 33 33 33 31 30 31 30 31 30 30 29 34 33 32
Lifted_Index
8 7 6 7 7 6 5 4 4 5 7 6 6 7 9 11 13 13 14 15 15 14 13 13 13 14 14 14 14 14 14 13 13 13 13 13 13 13 14 13 13 12 11 10
7 7 7 7 7 6 5 4 4 5 6 6 5 6 8 11 13 14 15 15 15 14 12 12 13 14 14 14 14 14 14 13 14 13 13 13 13 13 13 13 13 12 11 10
7 7 7 7 6 5 4 4 4 4 4 5 5 5 7 10 12 14 15 15 14 13 12 12 13 14 14 14 14 14 14 13 13 13 12 12 13 13 13 13 12 11 10 10
7 7 7 6 5 5 4 4 4 3 3 3 4 3 5 8 11 13 14 14 14 13 11 11 12 14 14 14 14 14 13 13 13 12 12 12 12 13 13 12 11 11 10 9
7 7 7 6 6 6 5 5 4 3 3 3 3 3 4 7 9 11 12 13 13 12 11 11 13 14 14 14 14 14 13 13 13 12 12 12 12 12 12 12 11 10 9 9
7 8 7 7 7 7 6 5 3 3 2 2 2 3 4 6 8 10 11 12 13 12 11 11 13 14 14 14 14 14 13 13 12 12 12 12 12 12 12 11 10 10 9 9
6 6 7 8 7 6 6 4 2 1 1 1 2 3 4 7 9 10 12 12 12 12 11 11 13 14 14 14 14 14 13 13 12 12 11 11 12 12 12 11 10 10 9 8
4 5 7 8 7 6 5 4 2 1 1 1 2 3 5 8 10 11 12 12 12 11 11 12 13 14 14 14 14 13 13 13 12 12 11 11 11 12 12 11 10 9 9 8
4 5 6 8 8 7 6 5 4 2 1 1 2 3 5 8 10 12 12 12 12 11 11 12 13 14 14 14 14 13 13 13 12 12 12 11 11 12 12 11 10 9 9 8
5 5 6 8 8 7 6 5 4 3 2 1 1 2 4 7 9 11 12 12 12 11 11 12 13 14 14 14 14 14 13 13 13 12 12 12 12 12 12 11 10 10 9 8
6 6 5 6 7 7 6 5 4 3 2 1 1 2 5 8 9 11 12 12 12 11 11 12 13 14 14 14 14 13 13 13 13 13 12 12 12 12 12 12 11 10 9 9
7 6 4 5 7 7 7 6 5 4 3 2 2 3 7 9 10 11 12 13 12 11 11 12 13 13 13 13 13 13 13 13 13 13 13 13 13 13 12 12 12 11 10 10
7 6 4 4 6 7 6 6 5 5 3 2 2 4 7 10 11 12 13 13 12 11 11 12 13 13 13 13 13 13 13 13 13 14 14 13 13 13 12 12 12 12 11 11
8 6 4 4 5 6 6 6 5 5 4 3 3 4 7 9 11 12 13 13 13 11 11 12 13 13 13 12 12 13 13 13 14 14 14 14 13 13 13 12 12 12 12 12
8 6 5 5 5 6 5 5 5 5 4 4 3 5 7 10 11 12 13 13 13 11 11 12 13 13 12 12 12 12 13 13 14 14 14 14 14 13 13 12 12 12 12 12
7 6 5 5 5 5 5 5 5 5 5 4 4 5 8 10 11 12 13 13 13 11 11 12 13 13 12 12 12 12 12 13 14 14 14 14 14 13 13 13 12 12 12 12
7 7 5 4 4 4 4 5 6 5 5 5 5 6 8 10 11 12 13 14 13 12 11 12 13 13 13 12 12 12 12 13 14 14 14 14 14 13 13 13 12 12 12 12
8 7 5 4 3 3 4 6 6 6 6 6 6 7 9 10 11 13 14 15 15 13 12 13 13 13 13 13 12 12 12 13 13 13 13 13 13 13 13 12 12 12 12 12
9 8 5 3 2 3 5 6 7 6 6 6 7 8 9 10 10 12 15 16 16 15 14 14 14 14 14 13 12 12 12 13 13 13 13 13 13 13 12 12 12 12 12 12
8 7 5 4 2 3 5 7 8 6 5 7 8 8 9 9 9 11 15 17 17 16 15 14 15 15 14 13 13 12 12 12 13 13 13 13 13 13 13 12 12 12 12 12
6 6 5 4 3 3 6 8 8 6 6 7 8 8 9 9 10 12 15 17 18 17 16 15 15 15 14 14 13 12 12 12 13 14 14 13 13 13 13 13 12 12 12 12
5 5 4 4 4 5 7 8 8 7 8 8 9 9 9 10 11 14 15 17 17 17 16 15 16 16 15 14 13 12 11 12 13 14 14 14 13 13 13 13 13 13 12 12
5 5 5 5 5 7 8 9 9 9 9 9 9 10 10 11 12 13 15 16 17 17 16 15 16 17 17 16 14 13 12 12 13 13 14 14 14 14 13 13 13 13 12 12
7 7 6 6 7 8 9 9 10 10 10 10 10 11 11 11 12 13 14 16 17 18 17 16 16 17 17 17 16 15 13 12 12 13 13 14 14 14 14 14 13 13 13 12
7 7 6 6 7 8 9 9 10 10 10 10 10 11 12 12 12 13 14 16 18 18 17 16 16 17 18 18 18 17 16 14 12 12 12 13 13 14 14 14 14 14 13 13
7 7 6 6 7 8 9 9 9 10 10 10 10 11 12 13 13 13 15 17 18 18 18 17 16 17 18 18 18 18 17 15 13 11 12 12 13 13 13 13 14 14 14 14